DW5164 Weather Reports


Display with metric or nautical units.
time (UTC)temp
F
wind
direction
speed
MPH
gust
MPH
rain 1hr
in
rain 24hr
in
rain mn
in
humidity
%
barometer
mb
20260903135927 90 191 2.0 3.0 0.00 0.00 0.00 55 1016.2
20260903134927 90 145 3.0 6.0 0.00 0.00 0.00 54 1016.2
20260903134428 90 147 2.0 5.0 0.00 0.00 0.00 54 1016.2
20260903133928 90 103 2.0 3.0 0.00 0.00 0.00 54 1016.3
20260903133427 89 110 3.0 8.0 0.00 0.00 0.00 55 1016.4
20260903132428 90 53 3.0 7.0 0.00 0.00 0.00 55 1016.4
20260903131928 90 324 2.0 5.0 0.00 0.00 0.00 54 1016.5
20260903131427 89 275 0.0 7.0 0.00 0.00 0.00 57 1016.5
20260903130928 89 70 4.0 7.0 0.00 0.00 0.00 55 1016.5
20260903130428 89 43 3.0 7.0 0.00 0.00 0.00 54 1016.6
20260903125927 89 74 4.0 7.0 0.00 0.00 0.00 56 1016.6
20260903125428 89 114 2.0 9.0 0.00 0.00 0.00 55 1016.6
20260903124428 89 97 5.0 7.0 0.00 0.00 0.00 55 1016.7
20260903123927 89 86 3.0 6.0 0.00 0.00 0.00 56 1016.8
20260903123427 88 99 4.0 7.0 0.00 0.00 0.00 56 1016.9
20260903122428 89 85 4.0 7.0 0.00 0.00 0.00 57 1016.7
20260903121927 88 105 6.0 9.0 0.00 0.00 0.00 58 1016.8
20260903121428 88 94 2.0 8.0 0.00 0.00 0.00 56 1016.8
20260903120928 89 106 2.0 6.0 0.00 0.00 0.00 57 1016.8
20260903120427 88 81 3.0 10.0 0.00 0.00 0.00 56 1016.9
20260903115427 88 111 4.0 6.0 0.00 0.00 0.00 58 1017.0
20260903114927 89 300 1.0 5.0 0.00 0.00 0.00 61 1017.0
20260903114427 88 294 1.0 3.0 0.00 0.00 0.00 59 1017.1
20260903113427 88 129 4.0 7.0 0.00 0.00 0.00 57 1017.1
20260903112927 88 125 5.0 8.0 0.00 0.00 0.00 58 1017.2
20260903112427 87 134 4.0 7.0 0.00 0.00 0.00 58 1017.2
20260903110929 87 54 5.0 8.0 0.00 0.00 0.00 61 1017.6
20260903110427 87 79 7.0 9.0 0.00 0.00 0.00 60 1017.6
20260903105427 87 81 6.0 12.0 0.00 0.00 0.00 61 1017.6
20260903104927 87 92 3.0 7.0 0.00 0.00 0.00 61 1017.6
20260903104427 86 20 1.0 7.0 0.00 0.00 0.00 64 1017.7
20260903103927 86 133 2.0 5.0 0.00 0.00 0.00 63 1017.7
20260903103426 86 111 3.0 7.0 0.00 0.00 0.00 63 1017.7
20260903102427 85 47 3.0 8.0 0.00 0.00 0.00 63 1017.9
20260903101927 85 82 4.0 8.0 0.00 0.00 0.00 63 1017.9
20260903101427 85 119 1.0 5.0 0.00 0.00 0.00 64 1018.0
20260903100927 85 101 5.0 9.0 0.00 0.00 0.00 64 1018.1
20260903095427 84 58 4.0 7.0 0.00 0.00 0.00 65 1018.3
20260903094426 84 81 3.0 7.0 0.00 0.00 0.00 63 1018.3
20260903093927 84 134 3.0 6.0 0.00 0.00 0.00 65 1018.4
20260903093426 84 57 1.0 3.0 0.00 0.00 0.00 66 1018.5
20260903092927 83 118 3.0 7.0 0.00 0.00 0.00 65 1018.5
20260903092427 83 136 3.0 7.0 0.00 0.00 0.00 64 1018.5
20260903091927 83 110 7.0 9.0 0.00 0.00 0.00 64 1018.6
20260903091427 83 64 4.0 7.0 0.00 0.00 0.00 66 1018.7
20260903090926 83 107 3.0 6.0 0.00 0.00 0.00 64 1018.7
20260903085927 82 132 3.0 7.0 0.00 0.00 0.00 66 1018.7
20260903084926 81 126 3.0 7.0 0.00 0.00 0.00 69 1018.5
20260903084430 81 115 3.0 7.0 0.00 0.00 0.00 67 1018.5
20260903083427 81 46 2.0 6.0 0.00 0.00 0.00 68 1018.5
20260903082926 81 89 5.0 9.0 0.00 0.00 0.00 68 1018.5
20260903082427 80 105 5.0 8.0 0.00 0.00 0.00 67 1018.4
20260903081942 80 93 4.0 8.0 0.00 0.00 0.00 69 1018.3
20260903081427 80 107 4.0 9.0 0.00 0.00 0.00 68 1018.3
20260903080926 80 74 6.0 10.0 0.00 0.00 0.00 68 1018.3
20260903080427 79 61 5.0 9.0 0.00 0.00 0.00 70 1018.4
20260903075927 78 89 4.0 8.0 0.00 0.00 0.00 73 1018.4
20260903074927 78 67 3.0 5.0 0.00 0.00 0.00 77 1018.3
20260903074426 78 83 3.0 5.0 0.00 0.00 0.00 77 1018.3
20260903073927 77 80 2.0 5.0 0.00 0.00 0.00 77 1018.2
20260903073426 77 81 2.0 6.0 0.00 0.00 0.00 77 1018.2
20260903072926 77 26 2.0 3.0 0.00 0.00 0.00 78 1018.2
20260903072427 76 102 3.0 5.0 0.00 0.00 0.00 79 1018.2
20260903071926 75 119 2.0 3.0 0.00 0.00 0.00 81 1018.2
20260903071429 75 102 2.0 3.0 0.00 0.00 0.00 80 1018.1
20260903070430 75 93 2.0 5.0 0.00 0.00 0.00 82 1018.1
20260903065926 75 90 2.0 5.0 0.00 0.00 0.00 83 1018.1
20260903065426 74 76 2.0 5.0 0.00 0.00 0.00 82 1018.1
20260903064933 74 69 2.0 3.0 0.00 0.00 0.00 82 1018.1
20260903064426 74 68 2.0 3.0 0.00 0.00 0.00 83 1018.1
20260903063428 73 75 1.0 3.0 0.00 0.00 0.00 83 1018.0
20260903062427 73 55 2.0 3.0 0.00 0.00 0.00 83 1018.0
20260903061926 73 55 1.0 2.0 0.00 0.00 0.00 83 1018.0
20260903060926 72 53 2.0 3.0 0.00 0.00 0.00 83 1018.0
20260903060426 72 53 1.0 2.0 0.00 0.00 0.00 84 1018.0
20260903055929 71 53 1.0 2.0 0.00 0.00 0.00 85 1018.0
20260903055427 71 44 2.0 3.0 0.00 0.00 0.00 87 1017.8
20260903054427 70 13 1.0 2.0 0.00 0.00 0.00 89 1017.7
20260903053927 69 347 0.0 0.0 0.00 0.00 0.00 89 1017.6
20260903053426 69 347 0.0 1.0 0.00 0.00 0.00 89 1017.6
20260903052927 69 347 0.0 2.0 0.00 0.00 0.00 90 1017.5
20260903052430 68 347 0.0 0.0 0.00 0.00 0.00 91 1017.4
20260903051928 68 347 0.0 0.0 0.00 0.00 0.00 91 1017.4
20260903051426 68 347 0.0 0.0 0.00 0.00 0.00 91 1017.4
20260903050926 68 330 0.0 0.0 0.00 0.00 0.00 91 1017.3
20260903045426 68 355 0.0 0.0 0.00 0.00 0.00 90 1017.2
20260903044926 68 0 0.0 0.0 0.00 0.00 0.00 90 1017.1
20260903044429 68 0 0.0 1.0 0.00 0.00 0.00 90 1017.0
20260903043926 68 0 1.0 2.0 0.00 0.00 0.00 90 1017.0
20260903043426 68 0 1.0 3.0 0.00 0.00 0.00 90 1016.9
20260903042427 68 57 0.0 2.0 0.00 0.00 0.00 90 1016.9
20260903041931 69 57 0.0 0.0 0.00 0.00 0.00 90 1016.9
20260903041426 69 57 0.0 0.0 0.00 0.00 0.00 89 1016.8
20260903040942 69 57 0.0 1.0 0.00 0.00 0.00 89 1016.9
20260903035925 69 57 1.0 2.0 0.00 0.00 0.00 90 1016.9
20260903035426 69 57 1.0 2.0 0.00 0.00 0.00 89 1016.9
20260903034927 69 57 2.0 3.0 0.00 0.00 0.00 89 1016.8
20260903033933 69 57 2.0 5.0 0.00 0.00 0.00 90 1016.9
20260903033427 68 53 3.0 3.0 0.00 0.00 0.00 90 1016.8
20260903032941 68 67 2.0 3.0 0.00 0.00 0.00 91 1016.8
20260903032426 68 71 3.0 5.0 0.00 0.00 0.00 91 1016.8
20260903031426 68 74 0.0 0.0 0.00 0.00 0.00 91 1016.7
20260903030926 68 74 0.0 0.0 0.00 0.00 0.00 91 1016.8
20260903030426 68 74 0.0 0.0 0.00 0.00 0.00 91 1016.8
20260903025925 68 74 0.0 0.0 0.00 0.00 0.00 91 1016.8
20260903025425 68 74 0.0 0.0 0.00 0.00 0.00 91 1016.8
20260903024927 68 74 0.0 0.0 0.00 0.00 0.00 90 1016.8
20260903024426 69 83 0.0 0.0 0.00 0.00 0.00 90 1016.8
20260903023927 69 83 0.0 0.0 0.00 0.00 0.00 90 1016.8
20260903023427 69 83 0.0 0.0 0.00 0.00 0.00 90 1016.8
20260903022942 69 56 0.0 0.0 0.00 0.00 0.00 90 1016.7
20260903022426 69 56 0.0 0.0 0.00 0.00 0.00 90 1016.7
20260903021926 69 56 0.0 0.0 0.00 0.00 0.00 90 1016.8
20260903020925 69 56 0.0 0.0 0.00 0.00 0.00 89 1016.8
20260903020425 69 56 0.0 0.0 0.00 0.00 0.00 89 1016.7
20260903015926 69 56 0.0 0.0 0.00 0.00 0.00 89 1016.7
20260903014926 69 56 2.0 3.0 0.00 0.00 0.00 89 1016.7
20260903014425 69 56 2.0 3.0 0.00 0.00 0.00 88 1016.7
20260903013426 69 57 1.0 2.0 0.00 0.00 0.00 88 1016.7
20260903012925 69 57 1.0 2.0 0.00 0.00 0.00 88 1016.7
20260903012427 69 40 1.0 2.0 0.00 0.00 0.00 88 1016.6
20260903011425 69 66 2.0 3.0 0.00 0.00 0.00 87 1016.6
20260903010930 69 66 0.0 3.0 0.00 0.00 0.00 87 1016.7
20260903010428 69 66 2.0 3.0 0.00 0.00 0.00 87 1016.7
20260903005925 70 66 3.0 3.0 0.00 0.00 0.00 87 1016.7
20260903004425 70 66 1.0 3.0 0.00 0.00 0.00 86 1016.6
20260903003925 70 66 2.0 3.0 0.00 0.00 0.00 86 1016.6
20260903003426 70 66 2.0 3.0 0.00 0.00 0.00 85 1016.5
20260903001426 71 55 2.0 3.0 0.00 0.00 0.00 85 1016.5
20260903000926 71 55 1.0 2.0 0.00 0.00 0.00 85 1016.5
20260903000426 71 56 1.0 2.0 0.00 0.00 0.00 84 1016.5
20260902235925 71 56 1.0 2.0 0.00 0.00 0.00 84 1016.4
20260902234925 71 55 2.0 3.0 0.00 0.00 0.00 85 1016.4
20260902234425 71 56 2.0 3.0 0.00 0.00 0.00 86 1016.3
20260902232425 72 56 2.0 3.0 0.00 0.00 0.00 85 1016.4
20260902231925 72 56 2.0 3.0 0.00 0.00 0.00 86 1016.4
20260902231426 71 56 2.0 3.0 0.00 0.00 0.00 86 1016.4
20260902230425 72 37 2.0 3.0 0.00 0.00 0.00 86 1016.4
20260902225925 72 37 0.0 2.0 0.00 0.00 0.00 85 1016.3
20260902225425 72 37 1.0 3.0 0.00 0.00 0.00 84 1016.3
20260902224927 73 37 3.0 3.0 0.00 0.00 0.00 84 1016.3
20260902224440 73 38 1.0 3.0 0.00 0.00 0.00 84 1016.3
20260902223425 73 16 3.0 5.0 0.00 0.00 0.00 84 1016.2
20260902221926 73 180 1.0 2.0 0.00 0.00 0.00 83 1016.1
20260902221425 73 180 0.0 0.0 0.00 0.00 0.00 82 1016.1
20260902220925 73 180 0.0 0.0 0.00 0.00 0.00 82 1016.1
20260902215925 74 180 0.0 0.0 0.00 0.00 0.00 81 1016.1
20260902215425 74 180 1.0 2.0 0.00 0.00 0.00 80 1016.0
20260902214940 74 180 0.0 0.0 0.00 0.00 0.00 80 1016.0
20260902214427 74 180 1.0 2.0 0.00 0.00 0.00 81 1016.0
20260902213925 74 180 1.0 2.0 0.00 0.00 0.00 81 1016.0
20260902212425 74 211 0.0 0.0 0.00 0.00 0.00 80 1015.8
20260902211924 74 211 0.0 0.0 0.00 0.00 0.00 80 1015.8
20260902211425 75 211 0.0 0.0 0.00 0.00 0.00 79 1015.7
20260902210924 75 211 0.0 0.0 0.00 0.00 0.00 79 1015.7
20260902210424 75 211 0.0 0.0 0.00 0.00 0.00 78 1015.7
20260902205925 75 211 0.0 0.0 0.00 0.00 0.00 78 1015.7
20260902205425 75 211 0.0 0.0 0.00 0.00 0.00 78 1015.7
20260902204924 75 211 0.0 2.0 0.00 0.00 0.00 77 1015.7
20260902202924 75 202 2.0 3.0 0.00 0.00 0.00 77 1015.5
20260902202424 76 138 0.0 0.0 0.00 0.00 0.00 77 1015.5
20260902201924 76 138 0.0 0.0 0.00 0.00 0.00 77 1015.5
20260902200932 75 138 0.0 1.0 0.00 0.00 0.00 78 1015.5
20260902195925 75 138 2.0 3.0 0.00 0.00 0.00 76 1015.5
20260902195424 75 138 1.0 3.0 0.00 0.00 0.00 75 1015.5
20260902194926 76 142 1.0 2.0 0.00 0.00 0.00 73 1015.5
20260902193924 77 296 0.0 0.0 0.00 0.00 0.00 72 1015.4
20260902192925 78 296 0.0 0.0 0.00 0.00 0.00 72 1015.4
20260902192424 78 296 0.0 0.0 0.00 0.00 0.00 73 1015.4
20260902191925 78 296 0.0 0.0 0.00 0.00 0.00 73 1015.3
20260902190940 78 296 0.0 0.0 0.00 0.00 0.00 72 1015.2
20260902185925 78 296 0.0 0.0 0.00 0.00 0.00 71 1015.2
20260902184926 78 296 0.0 0.0 0.00 0.00 0.00 72 1015.1
20260902183925 79 296 0.0 0.0 0.00 0.00 0.00 70 1014.9
20260902182927 80 296 0.0 0.0 0.00 0.00 0.00 69 1014.8
20260902182425 80 296 0.0 0.0 0.00 0.00 0.00 68 1014.8
20260902181924 80 296 0.0 0.0 0.00 0.00 0.00 68 1014.7
20260902181424 80 296 0.0 0.0 0.00 0.00 0.00 66 1014.6
20260902180941 81 296 0.0 0.0 0.00 0.00 0.00 66 1014.6
20260902175924 82 296 0.0 0.0 0.00 0.00 0.00 65 1014.5
20260902175426 82 296 0.0 1.0 0.00 0.00 0.00 64 1014.5
20260902174924 83 296 0.0 1.0 0.00 0.00 0.00 62 1014.5
20260902173925 85 296 2.0 2.0 0.00 0.00 0.00 55 1014.4
20260902173424 85 296 1.0 2.0 0.00 0.00 0.00 55 1014.4
20260902172425 86 341 1.0 3.0 0.00 0.00 0.00 55 1014.3
20260902171924 87 301 2.0 3.0 0.00 0.00 0.00 53 1014.2
20260902171426 87 303 2.0 5.0 0.00 0.00 0.00 53 1014.2
20260902170424 87 299 2.0 5.0 0.00 0.00 0.00 53 1014.3
20260902165931 88 280 2.0 3.0 0.00 0.00 0.00 51 1014.3
20260902165424 88 273 2.0 3.0 0.00 0.00 0.00 50 1014.4
20260902164939 88 301 2.0 3.0 0.00 0.00 0.00 49 1014.5
20260902163923 88 300 2.0 3.0 0.00 0.00 0.00 50 1014.4
20260902163431 88 227 2.0 5.0 0.00 0.00 0.00 50 1014.5
20260902162923 88 223 5.0 7.0 0.00 0.00 0.00 49 1014.4
20260902162424 89 194 3.0 5.0 0.00 0.00 0.00 48 1014.4
20260902161424 89 298 5.0 7.0 0.00 0.00 0.00 48 1014.4
20260902160924 89 314 4.0 7.0 0.00 0.00 0.00 49 1014.5
20260902160424 89 305 4.0 5.0 0.00 0.00 0.00 49 1014.5
20260902155928 89 315 2.0 3.0 0.00 0.00 0.00 50 1014.4
20260902155425 89 267 1.0 3.0 0.00 0.00 0.00 49 1014.4
20260902154924 89 307 4.0 6.0 0.00 0.00 0.00 48 1014.5
20260902154423 89 290 5.0 9.0 0.00 0.00 0.00 49 1014.5
20260902153924 89 314 3.0 8.0 0.00 0.00 0.00 48 1014.6
20260902153431 89 286 5.0 8.0 0.00 0.00 0.00 48 1014.6
20260902152923 90 265 5.0 8.0 0.00 0.00 0.00 47 1014.7
20260902151924 90 264 2.0 7.0 0.00 0.00 0.00 49 1014.7
20260902151423 89 348 1.0 7.0 0.00 0.00 0.00 52 1014.8
20260902150926 89 1 2.0 3.0 0.00 0.00 0.00 50 1014.8
20260902145423 90 272 3.0 7.0 0.00 0.00 0.00 49 1014.8
20260902144924 90 281 6.0 9.0 0.00 0.00 0.00 48 1014.9
20260902143925 89 279 6.0 10.0 0.00 0.00 0.00 51 1015.0
20260902143423 90 270 4.0 9.0 0.00 0.00 0.00 51 1015.0
20260902142927 89 236 4.0 7.0 0.00 0.00 0.00 51 1015.1
20260902141923 89 246 1.0 3.0 0.00 0.00 0.00 52 1015.2
20260902141441 90 261 5.0 9.0 0.00 0.00 0.00 52 1015.2
20260902140924 89 236 6.0 9.0 0.00 0.00 0.00 52 1015.2